Vernon, TX

4:53 PM CDT on July 24, 2017 (GMT -0500)
Vernon

Weather History for KF05 - June, 2013

Change the Weather History Date:

Saturday, June 1, 2013

  Actual Average (KLTS) Record (KLTS)
Temperature  
Mean Temperature 80 °F -  
Max Temperature 91 °F 86 °F 113 °F (1998)
Min Temperature 68 °F 63 °F 57 °F (2012)
Cooling Degree Days 14    
Growing Degree Days 30 (Base 50)    
Moisture  
Dew Point 47 °F    
Average Humidity 36    
Maximum Humidity 73    
Minimum Humidity 14    
Precipitation  
Precipitation 0.00 in - - ()
Sea Level Pressure  
Sea Level Pressure 29.88 in    
Wind  
Wind Speed 12 mph (NNE)    
Max Wind Speed 25 mph    
Max Gust Speed 34 mph    
Visibility 10 miles    
Events      
Averages and records for this station are not official NWS values.
T = Trace of Precipitation, MM = Missing Value Source: NWS Daily Summary

Daily Weather History Graph

Daily Weather History Graph

Search for Another Location

Airport or City:

Trip Planner

Search our weather history database for the weather conditions in past years. The results will help you decide how hot, cold, wet, or windy it might be!

Date:

Astronomy

Jun. 01, 2013 Rise Set
Actual Time 6:26 AM CDT 8:44 PM CDT
Civil Twilight 5:57 AM CDT 9:12 PM CDT
Nautical Twilight 5:22 AM CDT 9:48 PM CDT
Astronomical Twilight 4:43 AM CDT 10:26 PM CDT
Moon 2:06 AM CDT (6/1) 2:30 PM CDT (6/1)
Length of Visible Light 15h 15m
Length of Day
14h 17m
Last Quarter, 40% of the Moon is Illuminated
Jun 1
Last Quarter
Jun 8
New
Jun 16
First Quarter
Jun 23
Full
Jun 29
Last Quarter

Hourly Weather History & Observations

Time (CDT) Temp. Heat Index Dew Point Humidity Pressure Visibility Wind Dir Wind Speed Gust Speed Precip Events Conditions
12:15 AM 91.0 °F 90.9 °F 60.3 °F 36% 29.61 in 10.0 mi South 11.5 mph - N/A   Clear
12:35 AM 90.7 °F 91.0 °F 61.5 °F 38% 29.61 in 10.0 mi South 8.1 mph - N/A   Clear
12:55 AM 90.0 °F 90.3 °F 62.1 °F 39% 29.61 in 10.0 mi South 11.5 mph 16.1 mph N/A   Clear
1:15 AM 88.3 °F 88.9 °F 62.4 °F 42% 29.64 in 10.0 mi West 9.2 mph - N/A   Clear
1:35 AM 82.2 °F 83.8 °F 64.4 °F 55% 29.65 in 10.0 mi NW 11.5 mph - N/A   Clear
1:55 AM 78.1 °F - 65.7 °F 65% 29.66 in 10.0 mi NW 11.5 mph - N/A   Clear
2:15 AM 76.3 °F - 64.8 °F 67% 29.65 in 10.0 mi NW 3.5 mph - N/A   Clear
2:35 AM 75.2 °F - 64.2 °F 69% 29.66 in 10.0 mi West 3.5 mph - N/A   Clear
2:55 AM 74.3 °F - 63.9 °F 70% 29.67 in 10.0 mi WNW 6.9 mph - N/A   Clear
3:15 AM 73.9 °F - 63.9 °F 71% 29.68 in 10.0 mi NW 11.5 mph - N/A   Clear
3:35 AM 73.0 °F - 63.7 °F 72% 29.68 in 10.0 mi NNW 11.5 mph - N/A   Clear
3:55 AM 72.5 °F - 63.5 °F 73% 29.69 in 10.0 mi North 13.8 mph - N/A   Clear
4:15 AM 72.9 °F - 63.7 °F 73% 29.69 in 10.0 mi North 11.5 mph - N/A   Clear
4:35 AM 73.4 °F - 64.2 °F 73% 29.71 in 10.0 mi North 11.5 mph 18.4 mph N/A   Clear
4:55 AM 73.6 °F - 64.4 °F 73% 29.72 in 10.0 mi North 13.8 mph 18.4 mph N/A   Clear
5:15 AM 74.1 °F - 64.4 °F 72% 29.72 in 10.0 mi NNE 11.5 mph 18.4 mph N/A   Clear
5:35 AM 74.3 °F - 64.4 °F 71% 29.73 in 10.0 mi NNE 11.5 mph - N/A   Clear
5:55 AM 74.3 °F - 64.0 °F 70% 29.75 in 10.0 mi NNE 10.4 mph 17.3 mph N/A   Clear
6:15 AM 74.5 °F - 62.6 °F 66% 29.76 in 10.0 mi NNE 10.4 mph - N/A   Clear
6:35 AM 74.5 °F - 60.4 °F 61% 29.78 in 10.0 mi NNE 8.1 mph - N/A   Scattered Clouds
6:55 AM 74.7 °F - 58.5 °F 57% 29.79 in 10.0 mi NNE 6.9 mph - N/A   Scattered Clouds
7:15 AM 74.5 °F - 55.8 °F 52% 29.80 in 10.0 mi NNE 10.4 mph - N/A   Clear
7:35 AM 76.1 °F - 51.4 °F 42% 29.83 in 10.0 mi NNE 12.7 mph 18.4 mph N/A   Scattered Clouds
7:55 AM 77.0 °F - 52.5 °F 42% 29.85 in 10.0 mi North 15.0 mph 23.0 mph N/A   Mostly Cloudy
8:15 AM 76.1 °F - 55.8 °F 49% 29.87 in 10.0 mi NNE 18.4 mph 27.6 mph N/A   Mostly Cloudy
8:35 AM 75.4 °F - 57.0 °F 53% 29.88 in 10.0 mi NNE 23.0 mph 32.2 mph N/A   Scattered Clouds
8:55 AM 75.0 °F - 55.9 °F 51% 29.90 in 10.0 mi NNE 25.3 mph 31.1 mph N/A   Clear
9:15 AM 75.6 °F - 52.0 °F 44% 29.92 in 10.0 mi North 24.2 mph 34.5 mph N/A   Clear
9:35 AM 75.6 °F - 45.9 °F 35% 29.93 in 10.0 mi NNE 25.3 mph 34.5 mph N/A   Clear
9:55 AM 76.1 °F - 42.8 °F 30% 29.94 in 10.0 mi NNE 25.3 mph 32.2 mph N/A   Clear
10:15 AM 77.0 °F - 42.4 °F 29% 29.95 in 10.0 mi NNE 25.3 mph 32.2 mph N/A   Unknown
10:35 AM 77.7 °F - 42.1 °F 28% 29.95 in 10.0 mi NNE 20.7 mph 27.6 mph N/A   Clear
10:55 AM 78.6 °F - 41.9 °F 27% 29.96 in 10.0 mi NNE 20.7 mph 32.2 mph N/A   Clear
11:15 AM 79.9 °F - 41.4 °F 25% 29.96 in 10.0 mi North 20.7 mph 28.8 mph N/A   Clear
11:35 AM 81.3 °F - 41.2 °F 24% 29.97 in 10.0 mi NE 20.7 mph 29.9 mph N/A   Clear
11:55 AM 82.2 °F - 40.8 °F 23% 29.98 in 10.0 mi NNE 21.9 mph 27.6 mph N/A   Clear
12:15 PM 83.7 °F - 40.3 °F 21% 29.98 in 10.0 mi NNE 17.3 mph 23.0 mph N/A   Clear
12:35 PM 84.2 °F - 40.1 °F 21% 29.98 in 10.0 mi North 20.7 mph 27.6 mph N/A   Clear
12:55 PM 85.1 °F - 39.7 °F 20% 29.98 in 10.0 mi North 18.4 mph 27.6 mph N/A   Clear
1:15 PM 86.2 °F - 39.6 °F 19% 29.98 in 10.0 mi NE 16.1 mph 24.2 mph N/A   Clear
1:35 PM 86.4 °F - 39.4 °F 19% 29.98 in 10.0 mi NNE 16.1 mph 26.5 mph N/A   Clear
1:55 PM 86.5 °F - 39.2 °F 19% 29.98 in 10.0 mi NE 12.7 mph 24.2 mph N/A   Clear
2:15 PM 87.4 °F - 39.0 °F 18% 29.98 in 10.0 mi NE 13.8 mph 19.6 mph N/A   Clear
2:35 PM 88.2 °F - 38.8 °F 18% 29.97 in 10.0 mi NE 17.3 mph 25.3 mph N/A   Clear
2:55 PM 88.7 °F - 38.5 °F 17% 29.96 in 10.0 mi North 6.9 mph 18.4 mph N/A   Clear
3:15 PM 89.1 °F - 38.1 °F 17% 29.96 in 10.0 mi NNE 11.5 mph 17.3 mph N/A   Clear
3:35 PM 89.6 °F - 37.6 °F 16% 29.96 in 10.0 mi NE 9.2 mph 16.1 mph N/A   Clear
3:55 PM 89.6 °F - 37.8 °F 16% 29.95 in 10.0 mi NE 10.4 mph 16.1 mph N/A   Clear
4:15 PM 90.0 °F - 37.8 °F 16% 29.95 in 10.0 mi NNE 11.5 mph 23.0 mph N/A   Clear
4:35 PM 90.5 °F - 37.2 °F 15% 29.95 in 10.0 mi North 11.5 mph 17.3 mph N/A   Clear
4:55 PM 90.9 °F - 36.7 °F 15% 29.95 in 10.0 mi NNE 11.5 mph 19.6 mph N/A   Clear
5:15 PM 91.4 °F - 36.3 °F 14% 29.94 in 10.0 mi NNE 10.4 mph - N/A   Clear
5:35 PM 90.9 °F - 36.1 °F 15% 29.94 in 10.0 mi NNE 8.1 mph - N/A   Clear
5:55 PM 91.0 °F - 36.0 °F 14% 29.94 in 10.0 mi North 12.7 mph 18.4 mph N/A   Clear
6:15 PM 90.9 °F - 35.8 °F 14% 29.94 in 10.0 mi NNE 9.2 mph 16.1 mph N/A   Clear
6:35 PM 90.7 °F - 35.6 °F 14% 29.94 in 10.0 mi NNE 9.2 mph 19.6 mph N/A   Clear
6:55 PM 90.1 °F - 35.2 °F 14% 29.94 in 10.0 mi NNE 9.2 mph 16.1 mph N/A   Clear
7:15 PM 90.0 °F - 34.7 °F 14% 29.94 in 10.0 mi North 6.9 mph - N/A   Clear
7:35 PM 89.2 °F - 35.6 °F 15% 29.95 in 10.0 mi ENE 10.4 mph - N/A   Clear
7:55 PM 88.2 °F - 35.2 °F 15% 29.96 in 10.0 mi North 6.9 mph - N/A   Clear
8:15 PM 86.9 °F - 36.5 °F 17% 29.96 in 10.0 mi NNE 8.1 mph - N/A   Clear
8:35 PM 85.1 °F - 38.1 °F 19% 29.97 in 10.0 mi NE 6.9 mph - N/A   Clear
8:55 PM 82.2 °F - 39.2 °F 22% 29.98 in 10.0 mi NE 5.8 mph - N/A   Clear
9:15 PM 80.1 °F - 39.6 °F 24% 29.99 in 10.0 mi NE 5.8 mph - N/A   Clear
9:35 PM 78.3 °F - 39.2 °F 25% 30.00 in 10.0 mi NNE 5.8 mph - N/A   Clear
9:55 PM 76.3 °F - 39.4 °F 26% 30.01 in 10.0 mi Calm Calm - N/A   Clear
10:15 PM 75.7 °F - 39.2 °F 27% 30.02 in 10.0 mi NE 4.6 mph - N/A   Clear
10:35 PM 75.0 °F - 39.6 °F 28% 30.02 in 10.0 mi NE 4.6 mph - N/A   Clear
10:55 PM 73.6 °F - 39.6 °F 29% 30.03 in 10.0 mi NNE 5.8 mph - N/A   Clear
11:15 PM 70.5 °F - 39.2 °F 32% 30.05 in 10.0 mi NNE 6.9 mph - N/A   Clear
11:35 PM 68.9 °F - 40.1 °F 35% 30.06 in 10.0 mi NNE 5.8 mph - N/A   Clear
11:55 PM 68.4 °F - 41.9 °F 38% 30.06 in 10.0 mi NNE 4.6 mph - N/A   Clear